Wind_Speed
6 6 6 5 5 4 4 3 3 2 2 1 0 2 2 3 4 5 6 6 6 6 7 7 8 8 8 9 10 10 11 11 11 12 13 13 14 15
7 6 6 5 5 5 4 4 3 2 2 2 1 1 2 3 4 5 6 6 6 7 7 7 8 8 9 10 11 12 13 13 13 14 15 16 16 17
5 5 5 5 4 4 4 3 3 2 2 2 2 3 3 4 4 5 6 6 7 8 8 9 10 11 11 11 12 13 14 15 15 16 17 18 18 19
4 3 3 4 3 3 3 3 3 3 3 3 3 4 5 5 5 6 6 7 8 9 10 10 12 13 13 13 14 15 16 16 18 19 19 20 21 22
3 2 2 2 3 2 2 3 3 4 5 4 5 6 7 7 8 8 8 9 10 10 11 12 13 14 15 16 17 18 19 20 20 21 22 23 24 25
3 3 3 3 3 3 4 4 5 5 6 6 7 8 9 10 10 10 11 11 12 12 13 15 16 17 18 20 20 21 21 22 23 24 25 26 27 28
5 5 5 5 5 5 5 6 6 7 8 9 9 10 11 11 12 12 13 13 14 15 17 18 19 20 21 22 22 23 24 25 26 27 28 29 30 31
6 6 6 7 7 8 8 8 9 10 10 11 11 12 13 13 14 14 15 15 16 17 18 19 20 21 22 23 24 25 27 28 29 30 31 32 33 34
8 8 9 9 10 10 10 10 11 12 13 13 14 15 15 16 16 17 17 18 19 19 20 22 23 24 25 26 27 28 29 30 31 32 33 34 36 37
11 11 11 11 12 12 12 13 14 14 15 16 16 17 17 18 19 19 20 20 21 22 23 25 26 27 28 29 30 31 32 33 34 35 37 38 39 39
13 13 13 14 14 14 15 15 16 16 17 18 19 19 20 21 21 22 23 24 24 26 27 28 28 29 30 31 32 33 35 36 37 38 39 40 41 42
16 16 16 17 17 17 17 18 18 19 19 20 21 22 23 23 24 25 26 27 28 29 30 31 32 32 33 34 35 36 37 38 39 40 41 42 43 44
18 19 19 19 20 20 21 21 21 22 22 23 24 25 26 27 27 28 29 30 31 32 33 34 35 36 36 37 38 39 40 41 42 43 44 45 46 46
21 21 22 22 23 23 23 24 24 25 26 26 27 28 29 29 30 31 32 33 34 35 36 37 38 39 40 40 41 42 43 44 45 46 47 48 49 50
23 24 24 25 26 26 26 27 27 28 29 30 30 31 32 33 34 34 35 36 37 38 39 40 41 42 43 44 45 46 46 47 49 50 50 51 52 53
25 26 27 27 28 28 29 29 30 31 32 33 33 34 35 36 36 37 38 39 40 42 43 44 45 46 46 47 48 49 50 50 51 52 52 53 54 55
27 28 28 29 30 30 31 32 33 34 35 36 37 38 38 39 39 40 41 42 44 45 46 47 48 49 50 51 51 51 52 52 53 54 54 54 55 55
29 29 30 31 32 33 34 35 36 37 37 38 39 40 41 41 42 43 44 45 47 48 49 50 51 52 52 53 53 54 54 54 55 55 56 56 55 56
31 32 33 34 35 36 36 37 38 39 40 41 42 43 43 44 45 46 47 48 49 50 52 53 53 54 54 54 55 56 56 57 57 57 57 57 57 57
34 34 35 36 37 38 38 39 40 41 42 43 44 45 46 47 48 49 50 51 52 53 54 55 55 55 56 57 57 57 58 58 58 58 59 59 59 59
37 37 38 39 39 40 41 42 43 44 45 46 47 48 49 50 51 52 53 54 55 56 56 56 57 58 58 59 59 58 58 59 60 60 61 60 60 59
40 40 41 42 42 43 44 45 45 46 47 48 49 50 51 53 54 55 56 57 57 58 58 59 59 60 60 60 60 60 59 60 60 60 60 60 60 58
42 43 44 45 45 46 47 48 48 49 50 51 52 53 54 55 56 57 57 58 59 59 60 61 61 61 61 61 61 61 60 60 59 59 58 58 58 58
Wind_Direction
72 75 79 86 85 86 94 91 90 93 87 81 263 266 267 274 276 276 277 275 278 266 264 262 265 267 268 267 267 267 268 268 267 269 271 271 269 267
67 69 70 70 77 82 84 76 73 76 58 22 352 314 294 288 295 291 282 282 285 278 267 266 269 270 276 272 272 273 273 272 269 268 271 272 272 271
61 61 60 60 69 71 67 56 49 34 9 358 343 329 313 307 308 303 292 285 284 288 279 267 269 270 275 277 277 274 275 275 274 271 271 273 273 273
47 47 47 44 48 46 41 35 28 15 1 351 347 334 321 312 310 302 295 286 286 289 289 280 276 274 276 279 279 278 277 277 277 275 274 274 274 275
9 6 7 7 10 7 4 1 351 344 341 332 328 324 321 315 313 306 301 295 290 290 292 290 286 281 279 282 282 281 280 280 280 278 277 277 277 276
327 320 318 321 326 327 324 326 327 327 326 321 321 320 317 315 312 308 304 303 300 297 296 294 291 288 285 285 283 282 283 283 282 281 279 278 277 278
307 302 298 299 300 302 303 305 308 309 311 311 310 311 311 311 311 307 304 303 300 297 296 295 293 291 288 287 287 286 286 286 284 282 281 280 280 280
294 294 292 291 291 294 294 296 299 301 302 303 303 303 305 305 306 305 303 302 300 299 299 298 297 294 292 289 288 288 287 287 287 287 285 281 281 282
284 286 288 289 289 291 291 292 295 298 299 300 301 301 300 302 303 303 303 303 302 302 301 301 301 299 297 294 292 291 290 289 288 288 287 287 285 283
281 283 286 289 291 291 289 290 293 295 298 299 300 299 298 299 301 302 302 302 302 302 301 302 302 301 299 297 294 293 293 293 292 291 289 289 287 286
279 282 285 288 290 291 291 292 293 293 295 298 298 298 298 298 299 300 300 300 300 301 301 301 301 300 299 298 296 294 294 293 293 292 291 290 289 287
278 280 283 285 286 287 289 291 292 293 293 295 296 296 296 296 297 298 299 299 299 299 299 300 300 300 299 298 297 295 294 293 292 292 291 291 290 289
277 278 280 283 285 286 287 289 290 292 292 294 295 296 296 296 297 297 297 298 298 299 299 299 300 300 299 300 299 297 296 294 293 293 291 291 291 289
279 279 280 282 283 284 286 287 289 291 292 293 294 296 296 297 297 297 297 298 299 299 299 300 300 300 299 299 298 297 296 295 295 294 293 291 291 291
280 280 281 282 283 284 286 287 288 290 291 293 294 295 296 297 297 297 297 298 298 299 299 299 300 300 299 299 299 298 297 297 296 295 294 293 292 292
280 281 281 282 283 284 285 287 288 289 291 292 293 295 296 296 297 297 297 298 298 299 299 300 300 299 299 298 298 298 298 297 296 296 295 295 294 294
282 283 284 284 284 285 286 287 289 290 291 292 293 294 295 296 296 296 297 297 298 298 299 299 299 299 298 299 299 298 298 297 297 296 296 296 296 295
284 284 285 286 286 286 287 288 289 290 291 292 293 294 295 295 296 297 297 297 298 298 298 298 298 298 298 298 299 299 298 298 297 297 297 296 296 296
283 284 285 286 286 286 287 288 289 290 291 292 293 294 294 295 296 296 297 297 297 297 298 298 298 298 298 299 299 298 298 298 298 297 297 297 297 296
283 284 286 286 287 287 288 288 289 290 291 292 293 293 294 294 295 296 296 296 297 297 298 298 298 299 299 299 299 299 298 298 298 298 297 298 297 297
283 284 285 286 287 288 288 289 290 290 291 291 292 293 293 294 294 295 295 296 296 297 297 297 297 298 298 298 299 299 299 298 298 298 298 298 297 297
283 283 284 285 286 287 288 289 290 290 291 291 292 292 293 293 294 294 295 295 296 296 296 297 297 298 298 298 299 299 298 298 298 298 298 299 298 298
284 284 285 285 286 287 288 289 289 290 291 291 292 292 292 293 294 294 295 295 295 296 296 297 297 297 297 297 298 298 298 298 298 298 298 298 298 298
Height
5879 5879 5878 5878 5877 5877 5877 5877 5877 5876 5876 5875 5875 5874 5874 5873 5873 5872 5872 5872 5871 5872 5871 5871 5871 5871 5871 5870 5870 5870 5870 5870 5870 5871 5871 5871 5871 5871
5881 5880 5879 5879 5878 5878 5878 5877 5877 5877 5876 5875 5874 5874 5873 5872 5871 5870 5870 5870 5870 5870 5869 5869 5869 5869 5868 5868 5868 5868 5868 5867 5867 5868 5868 5868 5868 5868
5882 5881 5880 5880 5879 5879 5878 5878 5877 5877 5876 5875 5874 5873 5872 5871 5870 5869 5868 5868 5868 5868 5867 5867 5867 5866 5866 5865 5865 5865 5865 5865 5865 5864 5864 5864 5864 5864
5882 5881 5881 5880 5879 5879 5879 5878 5877 5877 5876 5875 5874 5873 5872 5870 5869 5868 5867 5867 5867 5866 5865 5865 5864 5864 5863 5862 5862 5861 5861 5861 5861 5860 5860 5860 5859 5859
5882 5881 5881 5880 5879 5879 5878 5878 5877 5876 5875 5874 5873 5872 5871 5869 5868 5867 5866 5865 5864 5864 5863 5862 5861 5860 5859 5859 5858 5858 5857 5857 5856 5855 5855 5854 5853 5853
5881 5880 5880 5879 5879 5878 5878 5877 5876 5876 5875 5874 5872 5871 5870 5868 5866 5865 5864 5863 5862 5861 5860 5859 5857 5856 5855 5854 5854 5853 5852 5851 5850 5849 5848 5848 5847 5846
5880 5879 5878 5878 5877 5877 5877 5876 5875 5874 5873 5872 5871 5870 5868 5866 5865 5863 5862 5861 5859 5857 5856 5855 5853 5852 5850 5849 5848 5847 5846 5845 5844 5842 5841 5840 5839 5837
5878 5877 5877 5876 5876 5875 5875 5874 5874 5873 5871 5870 5869 5867 5866 5864 5862 5860 5859 5857 5856 5854 5852 5850 5848 5845 5843 5842 5841 5840 5839 5837 5836 5835 5833 5831 5830 5828
5877 5876 5875 5875 5874 5874 5873 5872 5871 5870 5869 5868 5866 5864 5863 5861 5859 5857 5855 5853 5851 5849 5847 5844 5842 5839 5836 5834 5833 5832 5830 5829 5827 5825 5823 5821 5819 5817
5875 5874 5873 5872 5872 5871 5870 5869 5868 5867 5866 5864 5862 5861 5859 5857 5855 5853 5851 5848 5846 5844 5841 5839 5835 5832 5829 5827 5824 5823 5821 5819 5817 5815 5812 5810 5808 5805
5872 5871 5870 5869 5868 5867 5867 5866 5865 5863 5862 5860 5858 5856 5854 5852 5850 5848 5846 5843 5841 5838 5835 5832 5829 5825 5822 5819 5816 5814 5811 5809 5806 5803 5801 5798 5795 5792
5868 5867 5866 5865 5864 5863 5862 5861 5860 5859 5857 5855 5853 5851 5849 5847 5845 5843 5840 5837 5834 5832 5828 5825 5821 5818 5815 5812 5808 5805 5802 5799 5796 5793 5789 5786 5782 5779
5863 5863 5862 5861 5860 5859 5857 5856 5855 5853 5851 5850 5848 5846 5843 5841 5838 5836 5833 5830 5827 5824 5821 5817 5813 5809 5806 5803 5799 5795 5791 5788 5784 5781 5777 5774 5770 5766
5858 5857 5856 5855 5854 5853 5852 5850 5849 5847 5845 5843 5841 5839 5836 5834 5831 5828 5825 5822 5818 5815 5811 5808 5804 5800 5796 5792 5788 5784 5780 5776 5771 5767 5763 5759 5755 5751
5852 5851 5850 5849 5848 5847 5845 5844 5842 5840 5838 5836 5834 5831 5828 5825 5822 5819 5816 5812 5809 5805 5801 5797 5793 5789 5784 5780 5776 5772 5767 5763 5757 5753 5748 5744 5739 5735
5845 5844 5843 5842 5841 5839 5838 5836 5834 5832 5830 5827 5825 5822 5819 5816 5813 5809 5806 5802 5798 5794 5790 5785 5781 5776 5772 5767 5762 5758 5753 5748 5743 5737 5732 5728 5723 5717
5838 5837 5835 5834 5832 5831 5829 5827 5825 5823 5820 5818 5815 5812 5809 5806 5802 5798 5795 5791 5786 5782 5778 5773 5768 5763 5758 5753 5748 5743 5738 5733 5728 5722 5717 5712 5707 5701
5830 5829 5827 5825 5824 5822 5820 5818 5816 5813 5810 5807 5804 5801 5798 5794 5791 5787 5783 5778 5774 5769 5765 5760 5754 5749 5745 5740 5733 5727 5722 5717 5712 5706 5700 5695 5691 5685
5821 5820 5818 5816 5814 5812 5810 5808 5805 5802 5799 5796 5793 5789 5786 5782 5778 5774 5770 5765 5760 5756 5750 5745 5739 5734 5729 5725 5720 5712 5705 5700 5695 5689 5684 5678 5673 5668
5812 5810 5808 5806 5803 5801 5799 5796 5793 5790 5787 5784 5781 5777 5773 5769 5765 5760 5756 5751 5746 5741 5736 5730 5724 5718 5713 5708 5703 5697 5690 5683 5677 5672 5666 5660 5655 5649
5801 5799 5797 5795 5792 5789 5787 5784 5781 5778 5774 5771 5767 5763 5759 5755 5751 5746 5741 5736 5730 5725 5720 5714 5708 5702 5696 5690 5686 5681 5674 5666 5659 5653 5647 5641 5636 5631
5790 5788 5785 5782 5780 5777 5774 5771 5768 5764 5761 5757 5753 5749 5744 5740 5735 5730 5725 5720 5714 5709 5703 5698 5692 5686 5679 5673 5667 5662 5657 5650 5643 5636 5629 5623 5616 5612
5777 5775 5772 5769 5766 5763 5760 5757 5753 5750 5746 5742 5738 5733 5728 5724 5719 5714 5708 5703 5698 5692 5686 5680 5675 5668 5662 5656 5650 5644 5638 5632 5625 5620 5614 5607 5601 5595